Weather History for Sidney, NE

Change the Weather History Date:

Sunday, March 10, 2013

  Actual Average Record
Temperature  
Mean Temperature 28 °F 38 °F  
Max Temperature 39 °F 52 °F 80 °F (1972)
Min Temperature 17 °F 24 °F -17 °F (1948)
Degree Days  
Heating Degree Days 37 27  
Month to date heating degree days 295 284  
Since 1 July heating degree days 5025 4866  
Cooling Degree Days 0 0  
Month to date cooling degree days 0 0  
Year to date cooling degree days 0 0  
Moisture  
Dew Point 17 °F    
Average Humidity 60    
Maximum Humidity 84    
Minimum Humidity 35    
Precipitation  
Precipitation T in 0.03 in 0.17 in (1968)
Month to date precipitation 0.03 0.24  
Year to date precipitation 0.61 0.76  
Sea Level Pressure  
Sea Level Pressure 30.12 in    
Wind  
Wind Speed 14 mph (NNW)    
Max Wind Speed 29 mph    
Max Gust Speed 33 mph    
Visibility 8 miles    
Events Snow    
T = Trace of Precipitation, MM = Missing Value Source: NWS Daily Summary

Daily Weather History Graph

Daily Weather History Graph

Search for Another Location

Airport:

Trip Planner

Search our weather history database for the weather conditions in past years. The results will help you decide how hot, cold, wet, or windy it might be!

Date:

Astronomy

Mar. 10, 2013 Rise Set
Actual Time 7:11 AM MDT 6:53 PM MDT
Civil Twilight 6:43 AM MDT 7:20 PM MDT
Nautical Twilight 6:12 AM MDT 7:52 PM MDT
Astronomical Twilight 5:39 AM MDT 8:25 PM MDT
Moon 6:12 AM MDT (3/10) 6:03 PM MDT (3/10)
Length of Visible Light 12h 36m
Length of Day
11h 42m
Waning Crescent, 1% of the Moon is Illuminated
Mar 10
Waning Crescent
Mar 11
New
Mar 19
First Quarter
Mar 27
Full
Apr 2
Last Quarter

Hourly Weather History & Observations

Time (MDT) Temp. Windchill Dew Point Humidity Pressure Visibility Wind Dir Wind Speed Gust Speed Precip Events Conditions
12:53 AM 21.9 °F 9.2 °F 15.1 °F 75% 30.14 in 10.0 mi North 13.8 mph - N/A   Scattered Clouds
1:53 AM 25.0 °F 12.6 °F 18.0 °F 75% 30.14 in 10.0 mi North 15.0 mph - N/A   Overcast
3:28 AM 24.8 °F 12.4 °F 19.4 °F 80% 30.05 in 2.5 mi North 15.0 mph - 0.00 in Snow Light Snow
3:36 AM 24.8 °F 11.9 °F 19.4 °F 80% 30.05 in 6.0 mi North 16.1 mph - 0.00 in Snow Light Snow
3:53 AM 25.0 °F 14.2 °F 19.9 °F 81% 30.14 in 9.0 mi NNW 11.5 mph - 0.00 in   Overcast
4:28 AM 24.8 °F 12.4 °F 19.4 °F 80% 30.04 in 7.0 mi North 15.0 mph - 0.00 in   Overcast
4:53 AM 25.0 °F 11.7 °F 19.9 °F 81% 30.14 in 7.0 mi North 17.3 mph - 0.00 in   Overcast
5:09 AM 24.8 °F 11.5 °F 19.4 °F 80% 30.06 in 4.0 mi North 17.3 mph - 0.00 in Snow Light Snow
5:23 AM 24.8 °F 11.5 °F 19.4 °F 80% 30.06 in 2.5 mi North 17.3 mph 23.0 mph 0.00 in Snow Light Snow
5:25 AM 24.8 °F 11.5 °F 19.4 °F 80% 30.07 in 3.0 mi North 17.3 mph 23.0 mph 0.00 in Snow Light Snow
5:51 AM 24.8 °F 12.9 °F 19.4 °F 80% 30.07 in 7.0 mi North 13.8 mph - 0.00 in Snow Light Snow
6:39 AM 24.8 °F 11.5 °F 19.4 °F 80% 30.07 in 5.0 mi North 17.3 mph - 0.00 in Snow Light Snow
6:53 AM 24.1 °F 11.5 °F 19.0 °F 81% 30.17 in 4.0 mi North 15.0 mph - 0.00 in Snow Light Snow
7:10 AM 24.8 °F 11.5 °F 19.4 °F 80% 30.07 in 6.0 mi North 17.3 mph - 0.00 in   Overcast
7:30 AM 23.0 °F 8.7 °F 19.4 °F 86% 30.08 in 6.0 mi North 18.4 mph 26.5 mph 0.00 in   Overcast
7:41 AM 23.0 °F 8.3 °F 19.4 °F 86% 30.08 in 4.0 mi North 19.6 mph - 0.00 in Snow Light Snow
7:53 AM 23.0 °F 8.3 °F 18.0 °F 81% 30.18 in 4.0 mi North 19.6 mph - 0.00 in   Haze
8:00 AM 23.0 °F 9.2 °F 17.6 °F 80% 30.08 in 6.0 mi North 17.3 mph - N/A   Haze
8:20 AM 23.0 °F 9.2 °F 17.6 °F 80% 30.09 in 6.0 mi North 17.3 mph - N/A   Haze
8:53 AM 24.1 °F 8.3 °F 16.0 °F 71% 30.20 in 8.0 mi North 24.2 mph 32.2 mph N/A   Overcast
9:53 AM 24.1 °F 9.0 °F 16.0 °F 71% 30.20 in 10.0 mi NNW 21.9 mph 29.9 mph N/A   Partly Cloudy
10:36 AM 24.8 °F 9.0 °F 15.8 °F 69% 30.10 in 10.0 mi North 25.3 mph 32.2 mph N/A   Mostly Cloudy
10:53 AM 26.1 °F 10.7 °F 17.1 °F 69% 30.21 in 10.0 mi North 25.3 mph 33.4 mph N/A   Mostly Cloudy
11:03 AM 26.6 °F 11.1 °F 15.8 °F 64% 30.10 in 10.0 mi North 26.5 mph - N/A   Scattered Clouds
11:53 AM 28.0 °F 13.9 °F 17.1 °F 63% 30.21 in 10.0 mi North 23.0 mph - N/A   Partly Cloudy
12:53 PM 30.9 °F 18.1 °F 18.0 °F 59% 30.20 in 10.0 mi North 21.9 mph - N/A   Clear
1:53 PM 34.0 °F 22.1 °F 16.0 °F 48% 30.18 in 10.0 mi North 21.9 mph - N/A   Clear
2:53 PM 35.1 °F 24.8 °F 16.0 °F 46% 30.14 in 10.0 mi North 17.3 mph 25.3 mph N/A   Clear
3:53 PM 37.0 °F 28.1 °F 14.0 °F 39% 30.13 in 10.0 mi North 15.0 mph 26.5 mph N/A   Clear
4:53 PM 37.9 °F 28.9 °F 14.0 °F 38% 30.10 in 10.0 mi North 16.1 mph - N/A   Clear
5:53 PM 37.9 °F 30.9 °F 12.0 °F 35% 30.09 in 10.0 mi North 10.4 mph - N/A   Clear
6:53 PM 32.0 °F 28.7 °F 12.9 °F 45% 30.11 in 10.0 mi North 3.5 mph - N/A   Clear
7:53 PM 23.0 °F - 12.9 °F 65% 30.15 in 10.0 mi Calm Calm - N/A   Clear
8:53 PM 19.9 °F 14.9 °F 15.1 °F 81% 30.15 in 10.0 mi South 3.5 mph - N/A   Clear
9:53 PM 19.9 °F 9.3 °F 15.1 °F 81% 30.15 in 10.0 mi WSW 9.2 mph - N/A   Clear
10:53 PM 21.0 °F 14.6 °F 14.0 °F 74% 30.14 in 10.0 mi WNW 4.6 mph - N/A   Clear
11:53 PM 21.0 °F 16.2 °F 14.0 °F 74% 30.10 in 10.0 mi West 3.5 mph - N/A   Clear
12:53 AM 18.0 °F 8.7 °F 14.0 °F 84% 30.08 in 10.0 mi West 6.9 mph - N/A   Clear